Flag for Hungary Weather past 2 weeks in Szeged, Hungary

Now
68 °F

Partly sunny.


Feels Like: 68 °F
Forecast: 64 / 79 °F
Wind: 2 mph from East

Location: Szeged

Current Time: Jul 28, 2014 at 8:26:55 AM

Latest Report: Jul 28, 2014 at 8:00 AM


Visibility: 13 mi

Pressure: 29.90 "Hg

Humidity: 85%

Dew point: 64 °F

Location of SzegedLocation

Historic Weather in Szeged — Graph

°F

Szeged temperature yesterday

Maximum temperature yesterday: 78 °F (at 6:00 PM)
Minimum temperature yesterday: 63 °F (at 10:00 PM)
Average temperature yesterday: 70 °F

Past Weeks' High & Low Weather Summary

 TemperatureHumidityPressure
High90 °F (Jul 21, 3:00 PM)94% (Jul 15, 5:00 AM)30.03 "Hg (Jul 15, 5:00 AM)
Low58 °F (Jul 25, 5:00 AM)29% (Jul 20, 2:00 PM)29.75 "Hg (Jul 22, 6:00 PM)
Average73 °F69%29.91 "Hg
* Reported Jul 13 8:00 AM — Jul 28 7:00 AM, Szeged, Weather by CustomWeather, © 2014

Note: Actual official high and low records may vary slightly from our data, if they occured in-between our weather recording intervals... More about our weather records

Advertising

Szeged weather history for previous 24 hours

 ConditionsComfort  
Time TempWeatherWind HumidityBarometerVisibility
7:00 AM
Jul 28
65 °FOvercast.2 mph93%29.90 "Hg9 mi
6:00 AM64 °FOvercast.No wind94%29.89 "Hg7 mi
5:00 AM64 °FOvercast.1 mph94%29.88 "Hg7 mi
4:00 AM63 °FLight rain. Overcast.2 mph94%29.88 "Hg6 mi
3:00 AM63 °FLight rain. Overcast.1 mph94%29.89 "Hg6 mi
2:00 AM63 °FLight rain. Overcast.3 mph93%29.92 "Hg6 mi
1:00 AM63 °FThundershowers. Overcast.5 mph91%29.94 "Hg7 mi
12:00 AM64 °FThundershowers. Overcast.3 mph92%29.93 "Hg7 mi
11:00 PM
Jul 27
63 °FThundershowers. Overcast.2 mph92%29.89 "Hg7 mi
10:00 PM63 °FThundershowers. Overcast.5 mph91%29.94 "Hg4 mi
9:00 PM71 °FThundershowers. Overcast.5 mph84%29.89 "Hg4 mi
8:00 PM75 °FPartly sunny.2 mph69%29.87 "Hg19 mi
7:00 PM77 °FScattered clouds.2 mph64%29.87 "Hg19 mi
6:00 PM78 °FScattered clouds.3 mph61%29.88 "Hg19 mi
5:00 PM77 °FPartly sunny.3 mph62%29.88 "Hg22 mi
1:00 PM70 °FLight rain. Overcast.2 mph86%29.96 "Hg9 mi
12:00 PM66 °FLight rain. Overcast.1 mph92%29.96 "Hg6 mi
11:00 AM65 °FThundershowers. Overcast.1 mph91%29.96 "Hg2 mi
10:00 AM71 °FThundershowers. Overcast.6 mph71%29.94 "Hg1 mi
9:00 AM72 °FThunderstorms. Overcast.2 mph75%29.90 "Hg16 mi
8:00 AM70 °FOvercast.2 mph80%29.91 "Hg16 mi
Weather by CustomWeather, © 2014

See weather overviewHow to use our weather pages